owner,sensor,date,latitude,longitude,vertical_datum,wind_speed,wind_to_direction,wind_speed_of_gust,qcFlag 
COMPS,ioos:station:USF.COMPS:ARP:1,2019-07-01T00:54:00,28.4330,-82.6670,10.0,2.77,268.25,3.91,'11111222,11111222,11111222' 
COMPS,ioos:station:USF.COMPS:ARP:1,2019-07-01T01:54:00,28.4330,-82.6670,10.0,2.88,278.05,4.01,'11111222,11111222,11111222' 
COMPS,ioos:station:USF.COMPS:ARP:1,2019-07-01T02:54:00,28.4330,-82.6670,10.0,3.27,287.02,4.31,'11111222,11111222,11111222' 
COMPS,ioos:station:USF.COMPS:ARP:1,2019-07-01T03:54:00,28.4330,-82.6670,10.0,2.63,278.65,3.91,'11111222,11111222,11111222' 
COMPS,ioos:station:USF.COMPS:ARP:1,2019-07-01T04:54:00,28.4330,-82.6670,10.0,3.55,284.06,5.09,'11111222,11111222,11111222' 
COMPS,ioos:station:USF.COMPS:ARP:1,2019-07-01T05:54:00,28.4330,-82.6670,10.0,4.23,284.76,5.68,'11111222,11111222,11111222' 
COMPS,ioos:station:USF.COMPS:ARP:1,2019-07-01T06:54:00,28.4330,-82.6670,10.0,4.35,287.89,6.27,'11111222,11111222,11111222' 
COMPS,ioos:station:USF.COMPS:ARP:1,2019-07-01T07:54:00,28.4330,-82.6670,10.0,4.96,295.18,5.97,'11111222,11111222,11111222' 
COMPS,ioos:station:USF.COMPS:ARP:1,2019-07-01T08:54:00,28.4330,-82.6670,10.0,5.24,307.85,6.46,'11111222,11111222,11111222' 
COMPS,ioos:station:USF.COMPS:ARP:1,2019-07-01T09:54:00,28.4330,-82.6670,10.0,4.4,302.52,6.17,'11111222,11111222,11111222' 
COMPS,ioos:station:USF.COMPS:ARP:1,2019-07-01T10:54:00,28.4330,-82.6670,10.0,3.66,309.48,5.19,'11111222,11111222,11111222' 
COMPS,ioos:station:USF.COMPS:ARP:1,2019-07-01T11:54:00,28.4330,-82.6670,10.0,1.96,327.84,4.31,'11111222,11111222,11111222' 
COMPS,ioos:station:USF.COMPS:ARP:1,2019-07-01T12:54:00,28.4330,-82.6670,10.0,2.65,310.11,3.91,'11111222,11111222,11111222' 
COMPS,ioos:station:USF.COMPS:ARP:1,2019-07-01T14:54:00,28.4330,-82.6670,10.0,1.36,316.25,3.03,'11111222,11111222,11111222' 
COMPS,ioos:station:USF.COMPS:ARP:1,2019-07-01T15:54:00,28.4330,-82.6670,10.0,1.91,325.77,4.99,'11111222,11111222,11111222' 
COMPS,ioos:station:USF.COMPS:ARP:1,2019-07-01T16:54:00,28.4330,-82.6670,10.0,2.57,299.94,3.23,'11111222,11111222,11111222' 
COMPS,ioos:station:USF.COMPS:ARP:1,2019-07-01T17:54:00,28.4330,-82.6670,10.0,3.47,299.49,4.01,'11111222,11111222,11111222' 
COMPS,ioos:station:USF.COMPS:ARP:1,2019-07-01T18:54:00,28.4330,-82.6670,10.0,4.01,299.78,5.39,'11111222,11111222,11111222' 
COMPS,ioos:station:USF.COMPS:ARP:1,2019-07-01T19:54:00,28.4330,-82.6670,10.0,5.14,302.21,6.27,'11111222,11111222,11111222' 
COMPS,ioos:station:USF.COMPS:ARP:1,2019-07-01T20:54:00,28.4330,-82.6670,10.0,4.86,303.37,5.97,'11111222,11111222,11111222' 
COMPS,ioos:station:USF.COMPS:ARP:1,2019-07-01T21:54:00,28.4330,-82.6670,10.0,5.44,300.07,6.37,'11111222,11111222,11111222' 
COMPS,ioos:station:USF.COMPS:ARP:1,2019-07-01T22:54:00,28.4330,-82.6670,10.0,4.98,297.21,6.27,'11111222,11111222,11111222' 
COMPS,ioos:station:USF.COMPS:ARP:1,2019-07-01T23:54:00,28.4330,-82.6670,10.0,4.24,286.64,5.97,'11111222,11111222,11111222' 
COMPS,ioos:station:USF.COMPS:ARP:1,2019-07-02T00:54:00,28.4330,-82.6670,10.0,4.65,294.2,5.68,'11111222,11111222,11111222' 
COMPS,ioos:station:USF.COMPS:ARP:1,2019-07-02T01:54:00,28.4330,-82.6670,10.0,4.26,293.35,5.19,'11111222,11111222,11111222' 
COMPS,ioos:station:USF.COMPS:ARP:1,2019-07-02T02:54:00,28.4330,-82.6670,10.0,4.05,296.68,5.48,'11111222,11111222,11111222' 
COMPS,ioos:station:USF.COMPS:ARP:1,2019-07-02T03:54:00,28.4330,-82.6670,10.0,5.48,301.64,6.37,'11111222,11111222,11111222' 
COMPS,ioos:station:USF.COMPS:ARP:1,2019-07-02T04:54:00,28.4330,-82.6670,10.0,5.64,298.86,7.15,'11111222,11111222,11111222' 
COMPS,ioos:station:USF.COMPS:ARP:1,2019-07-02T05:54:00,28.4330,-82.6670,10.0,6.35,304.58,7.83,'11111222,11111222,11111222' 
COMPS,ioos:station:USF.COMPS:ARP:1,2019-07-02T06:54:00,28.4330,-82.6670,10.0,4.97,309.18,7.05,'11111222,11111222,11111222' 
COMPS,ioos:station:USF.COMPS:ARP:1,2019-07-02T07:54:00,28.4330,-82.6670,10.0,5.58,308.52,7.64,'11111222,11111222,11111222' 
COMPS,ioos:station:USF.COMPS:ARP:1,2019-07-02T08:54:00,28.4330,-82.6670,10.0,1.7,320.31,3.23,'11111222,11111222,11111222' 
COMPS,ioos:station:USF.COMPS:ARP:1,2019-07-02T09:54:00,28.4330,-82.6670,10.0,3.11,315.84,5.78,'11111222,11111222,11111222' 
COMPS,ioos:station:USF.COMPS:ARP:1,2019-07-02T10:54:00,28.4330,-82.6670,10.0,2.61,311.39,4.41,'11111222,11111222,11111222' 
COMPS,ioos:station:USF.COMPS:ARP:1,2019-07-02T11:54:00,28.4330,-82.6670,10.0,2.46,308.72,4.11,'11111222,11111222,11111222' 
COMPS,ioos:station:USF.COMPS:ARP:1,2019-07-02T12:54:00,28.4330,-82.6670,10.0,1.98,318.52,3.42,'11111222,11111222,11111222' 
COMPS,ioos:station:USF.COMPS:ARP:1,2019-07-02T13:54:00,28.4330,-82.6670,10.0,2.12,324.82,3.91,'11111222,11111222,11111222' 
COMPS,ioos:station:USF.COMPS:ARP:1,2019-07-02T14:54:00,28.4330,-82.6670,10.0,1.99,318.36,3.91,'11111222,11111222,11111222' 
COMPS,ioos:station:USF.COMPS:ARP:1,2019-07-02T15:54:00,28.4330,-82.6670,10.0,2.25,323.33,4.21,'11111222,11111222,11111222' 
COMPS,ioos:station:USF.COMPS:ARP:1,2019-07-02T16:54:00,28.4330,-82.6670,10.0,3.37,307.69,4.6,'11111222,11111222,11111222' 
COMPS,ioos:station:USF.COMPS:ARP:1,2019-07-02T17:54:00,28.4330,-82.6670,10.0,3.06,312.23,4.41,'11111222,11111222,11111222' 
COMPS,ioos:station:USF.COMPS:ARP:1,2019-07-02T18:54:00,28.4330,-82.6670,10.0,4.78,300.16,5.58,'11111222,11111222,11111222' 
COMPS,ioos:station:USF.COMPS:ARP:1,2019-07-02T19:54:00,28.4330,-82.6670,10.0,5.07,297.64,6.66,'11111222,11111222,11111222' 
COMPS,ioos:station:USF.COMPS:ARP:1,2019-07-02T20:54:00,28.4330,-82.6670,10.0,4.92,302.02,5.87,'11111222,11111222,11111222' 
COMPS,ioos:station:USF.COMPS:ARP:1,2019-07-02T21:54:00,28.4330,-82.6670,10.0,5.08,294.65,7.25,'11111222,11111222,11111222' 
COMPS,ioos:station:USF.COMPS:ARP:1,2019-07-02T22:54:00,28.4330,-82.6670,10.0,4.47,301.9,5.48,'11111222,11111222,11111222' 
COMPS,ioos:station:USF.COMPS:ARP:1,2019-07-02T23:54:00,28.4330,-82.6670,10.0,4.29,292.61,5.09,'11111222,11111222,11111222' 
COMPS,ioos:station:USF.COMPS:ARP:1,2019-07-03T00:54:00,28.4330,-82.6670,10.0,4.43,294.04,5.78,'11111222,11111222,11111222' 
COMPS,ioos:station:USF.COMPS:ARP:1,2019-07-03T01:54:00,28.4330,-82.6670,10.0,4.11,300.75,4.99,'11111222,11111222,11111222' 
COMPS,ioos:station:USF.COMPS:ARP:1,2019-07-03T02:54:00,28.4330,-82.6670,10.0,5.11,299.99,6.37,'11111222,11111222,11111222' 
COMPS,ioos:station:USF.COMPS:ARP:1,2019-07-03T03:54:00,28.4330,-82.6670,10.0,4.08,308.69,5.78,'11111222,11111222,11111222' 
COMPS,ioos:station:USF.COMPS:ARP:1,2019-07-03T04:54:00,28.4330,-82.6670,10.0,4.39,303.61,5.78,'11111222,11111222,11111222' 
COMPS,ioos:station:USF.COMPS:ARP:1,2019-07-03T05:54:00,28.4330,-82.6670,10.0,4.41,312.03,5.97,'11111222,11111222,11111222' 
COMPS,ioos:station:USF.COMPS:ARP:1,2019-07-03T06:54:00,28.4330,-82.6670,10.0,4.81,306.23,6.17,'11111222,11111222,11111222' 
COMPS,ioos:station:USF.COMPS:ARP:1,2019-07-03T07:54:00,28.4330,-82.6670,10.0,2.94,313.72,5.29,'11111222,11111222,11111222' 
COMPS,ioos:station:USF.COMPS:ARP:1,2019-07-03T08:54:00,28.4330,-82.6670,10.0,1.49,320.21,2.74,'11111222,11111222,11111222' 
COMPS,ioos:station:USF.COMPS:ARP:1,2019-07-03T09:54:00,28.4330,-82.6670,10.0,1.11,335.74,2.74,'11111222,11111222,11111222' 
COMPS,ioos:station:USF.COMPS:ARP:1,2019-07-03T10:54:00,28.4330,-82.6670,10.0,1.52,330.21,3.23,'11111222,11111222,11111222' 
COMPS,ioos:station:USF.COMPS:ARP:1,2019-07-03T11:54:00,28.4330,-82.6670,10.0,0.96,334.05,3.62,'11111222,11111222,11111222' 
COMPS,ioos:station:USF.COMPS:ARP:1,2019-07-03T12:54:00,28.4330,-82.6670,10.0,1.14,323.77,2.45,'11111222,11111222,11111222' 
COMPS,ioos:station:USF.COMPS:ARP:1,2019-07-03T13:54:00,28.4330,-82.6670,10.0,2.24,328.58,4.5,'11111222,11111222,11111222' 
COMPS,ioos:station:USF.COMPS:ARP:1,2019-07-03T14:54:00,28.4330,-82.6670,10.0,1.04,8.82,2.74,'11111222,11111222,11111222' 
COMPS,ioos:station:USF.COMPS:ARP:1,2019-07-03T15:54:00,28.4330,-82.6670,10.0,2.68,315.3,4.21,'11111222,11111222,11111222' 
COMPS,ioos:station:USF.COMPS:ARP:1,2019-07-03T16:54:00,28.4330,-82.6670,10.0,3.23,311.19,4.5,'11111222,11111222,11111222' 
COMPS,ioos:station:USF.COMPS:ARP:1,2019-07-03T17:54:00,28.4330,-82.6670,10.0,2.99,301.21,3.62,'11111222,11111222,11111222' 
COMPS,ioos:station:USF.COMPS:ARP:1,2019-07-03T18:54:00,28.4330,-82.6670,10.0,2.7,294.07,3.52,'11111222,11111222,11111222' 
COMPS,ioos:station:USF.COMPS:ARP:1,2019-07-03T19:54:00,28.4330,-82.6670,10.0,3.88,291.3,4.6,'11111222,11111222,11111222' 
COMPS,ioos:station:USF.COMPS:ARP:1,2019-07-03T20:54:00,28.4330,-82.6670,10.0,4.55,291.79,5.78,'11111222,11111222,11111222' 
COMPS,ioos:station:USF.COMPS:ARP:1,2019-07-03T21:54:00,28.4330,-82.6670,10.0,4.95,297.6,6.46,'11111222,11111222,11111222' 
COMPS,ioos:station:USF.COMPS:ARP:1,2019-07-03T22:54:00,28.4330,-82.6670,10.0,4.07,306.95,5.19,'11111222,11111222,11111222' 
COMPS,ioos:station:USF.COMPS:ARP:1,2019-07-03T23:54:00,28.4330,-82.6670,10.0,3.21,305.55,4.31,'11111222,11111222,11111222' 
COMPS,ioos:station:USF.COMPS:ARP:1,2019-07-04T00:54:00,28.4330,-82.6670,10.0,1.78,316.08,3.72,'11111222,11111222,11111222' 
COMPS,ioos:station:USF.COMPS:ARP:1,2019-07-04T01:54:00,28.4330,-82.6670,10.0,0.47,319.06,1.66,'11111222,11111222,11111222' 
COMPS,ioos:station:USF.COMPS:ARP:1,2019-07-04T02:54:00,28.4330,-82.6670,10.0,1.21,323.06,3.23,'11111222,11111222,11111222' 
COMPS,ioos:station:USF.COMPS:ARP:1,2019-07-04T03:54:00,28.4330,-82.6670,10.0,1.9,315.18,3.72,'11111222,11111222,11111222' 
COMPS,ioos:station:USF.COMPS:ARP:1,2019-07-04T04:54:00,28.4330,-82.6670,10.0,0.31,74.7,0.97,'11111222,11111222,11111222' 
COMPS,ioos:station:USF.COMPS:ARP:1,2019-07-04T05:54:00,28.4330,-82.6670,10.0,2.04,95.14,3.42,'11111222,11111222,11111222' 
COMPS,ioos:station:USF.COMPS:ARP:1,2019-07-04T06:54:00,28.4330,-82.6670,10.0,1.14,202.65,1.95,'11111222,11111222,11111222' 
COMPS,ioos:station:USF.COMPS:ARP:1,2019-07-04T07:54:00,28.4330,-82.6670,10.0,1.0,223.38,2.25,'11111222,11111222,11111222' 
COMPS,ioos:station:USF.COMPS:ARP:1,2019-07-04T08:54:00,28.4330,-82.6670,10.0,0.84,114.86,1.46,'11111222,11111222,11111222' 
COMPS,ioos:station:USF.COMPS:ARP:1,2019-07-04T09:54:00,28.4330,-82.6670,10.0,0.96,130.93,1.46,'11111222,11111222,11111222' 
COMPS,ioos:station:USF.COMPS:ARP:1,2019-07-04T10:54:00,28.4330,-82.6670,10.0,0.47,121.46,0.68,'11111222,11111222,11111222' 
COMPS,ioos:station:USF.COMPS:ARP:1,2019-07-04T11:54:00,28.4330,-82.6670,10.0,0.5,74.69,0.88,'11111222,11111222,11111222' 
COMPS,ioos:station:USF.COMPS:ARP:1,2019-07-04T12:54:00,28.4330,-82.6670,10.0,0.68,95.71,0.88,'11111222,11111222,11111222' 
COMPS,ioos:station:USF.COMPS:ARP:1,2019-07-04T13:54:00,28.4330,-82.6670,10.0,0.01,77.08,0.29,'11111222,11111222,11111222' 
COMPS,ioos:station:USF.COMPS:ARP:1,2019-07-04T14:54:00,28.4330,-82.6670,10.0,1.41,305.01,1.95,'11111222,11111222,11111222' 
COMPS,ioos:station:USF.COMPS:ARP:1,2019-07-04T15:54:00,28.4330,-82.6670,10.0,2.16,298.6,2.64,'11111222,11111222,11111222' 
COMPS,ioos:station:USF.COMPS:ARP:1,2019-07-04T16:54:00,28.4330,-82.6670,10.0,3.44,303.61,4.11,'11111222,11111222,11111222' 
COMPS,ioos:station:USF.COMPS:ARP:1,2019-07-04T17:54:00,28.4330,-82.6670,10.0,4.09,304.7,4.9,'11111222,11111222,11111222' 
COMPS,ioos:station:USF.COMPS:ARP:1,2019-07-04T18:54:00,28.4330,-82.6670,10.0,3.9,305.34,4.9,'11111222,11111222,11111222' 
COMPS,ioos:station:USF.COMPS:ARP:1,2019-07-04T19:54:00,28.4330,-82.6670,10.0,2.4,222.82,4.8,'11111222,11111222,11111222' 
COMPS,ioos:station:USF.COMPS:ARP:1,2019-07-04T20:54:00,28.4330,-82.6670,10.0,1.44,119.47,2.25,'11111222,11111222,11111222' 
COMPS,ioos:station:USF.COMPS:ARP:1,2019-07-04T21:54:00,28.4330,-82.6670,10.0,2.01,101.78,3.03,'11111222,11111222,11111222' 
COMPS,ioos:station:USF.COMPS:ARP:1,2019-07-04T22:54:00,28.4330,-82.6670,10.0,1.69,77.93,2.35,'11111222,11111222,11111222' 
COMPS,ioos:station:USF.COMPS:ARP:1,2019-07-04T23:54:00,28.4330,-82.6670,10.0,1.15,111.95,1.76,'11111222,11111222,11111222' 
COMPS,ioos:station:USF.COMPS:ARP:1,2019-07-05T00:54:00,28.4330,-82.6670,10.0,1.01,80.7,1.66,'11111222,11111222,11111222' 
COMPS,ioos:station:USF.COMPS:ARP:1,2019-07-05T01:54:00,28.4330,-82.6670,10.0,2.22,94.93,3.62,'11111222,11111222,11111222' 
COMPS,ioos:station:USF.COMPS:ARP:1,2019-07-05T02:54:00,28.4330,-82.6670,10.0,2.4,99.72,3.52,'11111222,11111222,11111222' 
COMPS,ioos:station:USF.COMPS:ARP:1,2019-07-05T03:54:00,28.4330,-82.6670,10.0,2.0,103.18,3.13,'11111222,11111222,11111222' 
COMPS,ioos:station:USF.COMPS:ARP:1,2019-07-05T04:54:00,28.4330,-82.6670,10.0,2.11,103.23,3.13,'11111222,11111222,11111222' 
COMPS,ioos:station:USF.COMPS:ARP:1,2019-07-05T05:54:00,28.4330,-82.6670,10.0,2.13,113.06,3.13,'11111222,11111222,11111222' 
COMPS,ioos:station:USF.COMPS:ARP:1,2019-07-05T06:54:00,28.4330,-82.6670,10.0,2.39,103.85,3.42,'11111222,11111222,11111222' 
COMPS,ioos:station:USF.COMPS:ARP:1,2019-07-05T07:54:00,28.4330,-82.6670,10.0,2.63,108.69,3.62,'11111222,11111222,11111222' 
COMPS,ioos:station:USF.COMPS:ARP:1,2019-07-05T08:54:00,28.4330,-82.6670,10.0,2.65,102.98,3.82,'11111222,11111222,11111222' 
COMPS,ioos:station:USF.COMPS:ARP:1,2019-07-05T09:54:00,28.4330,-82.6670,10.0,2.23,105.03,3.52,'11111222,11111222,11111222' 
COMPS,ioos:station:USF.COMPS:ARP:1,2019-07-05T10:54:00,28.4330,-82.6670,10.0,2.12,99.56,3.13,'11111222,11111222,11111222' 
COMPS,ioos:station:USF.COMPS:ARP:1,2019-07-05T11:54:00,28.4330,-82.6670,10.0,2.12,111.8,3.33,'11111222,11111222,11111222' 
COMPS,ioos:station:USF.COMPS:ARP:1,2019-07-05T12:54:00,28.4330,-82.6670,10.0,1.43,111.58,2.25,'11111222,11111222,11111222' 
COMPS,ioos:station:USF.COMPS:ARP:1,2019-07-05T13:54:00,28.4330,-82.6670,10.0,2.28,112.74,3.52,'11111222,11111222,11111222' 
COMPS,ioos:station:USF.COMPS:ARP:1,2019-07-05T14:54:00,28.4330,-82.6670,10.0,1.39,131.78,2.54,'11111222,11111222,11111222' 
COMPS,ioos:station:USF.COMPS:ARP:1,2019-07-05T15:54:00,28.4330,-82.6670,10.0,1.56,236.66,2.93,'11111222,11111222,11111222' 
COMPS,ioos:station:USF.COMPS:ARP:1,2019-07-05T16:54:00,28.4330,-82.6670,10.0,3.78,290.59,4.6,'11111222,11111222,11111222' 
COMPS,ioos:station:USF.COMPS:ARP:1,2019-07-05T17:54:00,28.4330,-82.6670,10.0,0.78,47.86,2.25,'11111222,11111222,11111222' 
COMPS,ioos:station:USF.COMPS:ARP:1,2019-07-05T18:54:00,28.4330,-82.6670,10.0,1.69,85.95,2.35,'11111222,11111222,11111222' 
COMPS,ioos:station:USF.COMPS:ARP:1,2019-07-05T19:54:00,28.4330,-82.6670,10.0,0.76,108.9,1.27,'11111222,11111222,11111222' 
COMPS,ioos:station:USF.COMPS:ARP:1,2019-07-05T20:54:00,28.4330,-82.6670,10.0,1.34,126.45,2.74,'11111222,11111222,11111222' 
COMPS,ioos:station:USF.COMPS:ARP:1,2019-07-05T21:54:00,28.4330,-82.6670,10.0,2.06,65.99,3.23,'11111222,11111222,11111222' 
COMPS,ioos:station:USF.COMPS:ARP:1,2019-07-05T22:54:00,28.4330,-82.6670,10.0,1.62,64.12,2.84,'11111222,11111222,11111222' 
COMPS,ioos:station:USF.COMPS:ARP:1,2019-07-05T23:54:00,28.4330,-82.6670,10.0,2.59,79.16,3.62,'11111222,11111222,11111222' 
COMPS,ioos:station:USF.COMPS:ARP:1,2019-07-06T00:54:00,28.4330,-82.6670,10.0,2.62,113.91,4.7,'11111222,11111222,11111222' 
COMPS,ioos:station:USF.COMPS:ARP:1,2019-07-06T01:54:00,28.4330,-82.6670,10.0,1.48,103.68,2.15,'11111222,11111222,11111222' 
COMPS,ioos:station:USF.COMPS:ARP:1,2019-07-06T02:54:00,28.4330,-82.6670,10.0,2.13,91.95,2.93,'11111222,11111222,11111222' 
COMPS,ioos:station:USF.COMPS:ARP:1,2019-07-06T03:54:00,28.4330,-82.6670,10.0,2.01,96.0,3.62,'11111222,11111222,11111222' 
COMPS,ioos:station:USF.COMPS:ARP:1,2019-07-06T04:54:00,28.4330,-82.6670,10.0,1.51,114.31,2.74,'11111222,11111222,11111222' 
COMPS,ioos:station:USF.COMPS:ARP:1,2019-07-06T05:54:00,28.4330,-82.6670,10.0,1.67,109.74,2.64,'11111222,11111222,11111222' 
COMPS,ioos:station:USF.COMPS:ARP:1,2019-07-06T06:54:00,28.4330,-82.6670,10.0,1.89,107.68,3.42,'11111222,11111222,11111222' 
COMPS,ioos:station:USF.COMPS:ARP:1,2019-07-06T07:54:00,28.4330,-82.6670,10.0,2.15,113.0,2.93,'11111222,11111222,11111222' 
COMPS,ioos:station:USF.COMPS:ARP:1,2019-07-06T08:54:00,28.4330,-82.6670,10.0,2.08,101.9,3.23,'11111222,11111222,11111222' 
COMPS,ioos:station:USF.COMPS:ARP:1,2019-07-06T09:54:00,28.4330,-82.6670,10.0,1.06,112.14,1.76,'11111222,11111222,11111222' 
COMPS,ioos:station:USF.COMPS:ARP:1,2019-07-06T10:54:00,28.4330,-82.6670,10.0,0.71,124.93,1.46,'11111222,11111222,11111222' 
COMPS,ioos:station:USF.COMPS:ARP:1,2019-07-06T11:54:00,28.4330,-82.6670,10.0,1.43,132.03,2.64,'11111222,11111222,11111222' 
COMPS,ioos:station:USF.COMPS:ARP:1,2019-07-06T12:54:00,28.4330,-82.6670,10.0,0.93,158.3,2.64,'11111222,11111222,11111222' 
COMPS,ioos:station:USF.COMPS:ARP:1,2019-07-06T13:54:00,28.4330,-82.6670,10.0,1.49,169.34,3.42,'11111222,11111222,11111222' 
COMPS,ioos:station:USF.COMPS:ARP:1,2019-07-06T14:54:00,28.4330,-82.6670,10.0,1.64,223.52,4.11,'11111222,11111222,11111222' 
COMPS,ioos:station:USF.COMPS:ARP:1,2019-07-06T15:54:00,28.4330,-82.6670,10.0,1.36,205.03,3.13,'11111222,11111222,11111222' 
COMPS,ioos:station:USF.COMPS:ARP:1,2019-07-06T16:54:00,28.4330,-82.6670,10.0,2.39,224.63,5.97,'11111222,11111222,11111222' 
COMPS,ioos:station:USF.COMPS:ARP:1,2019-07-06T17:54:00,28.4330,-82.6670,10.0,4.2,278.71,5.58,'11111222,11111222,11111222' 
COMPS,ioos:station:USF.COMPS:ARP:1,2019-07-06T18:54:00,28.4330,-82.6670,10.0,2.28,330.01,6.17,'11111222,11111222,11111222' 
COMPS,ioos:station:USF.COMPS:ARP:1,2019-07-06T19:54:00,28.4330,-82.6670,10.0,1.21,79.29,1.95,'11111222,11111222,11111222' 
COMPS,ioos:station:USF.COMPS:ARP:1,2019-07-06T20:54:00,28.4330,-82.6670,10.0,1.47,65.49,2.35,'11111222,11111222,11111222' 
COMPS,ioos:station:USF.COMPS:ARP:1,2019-07-06T21:54:00,28.4330,-82.6670,10.0,0.86,115.98,1.37,'11111222,11111222,11111222' 
COMPS,ioos:station:USF.COMPS:ARP:1,2019-07-06T22:54:00,28.4330,-82.6670,10.0,1.1,95.63,1.76,'11111222,11111222,11111222' 
COMPS,ioos:station:USF.COMPS:ARP:1,2019-07-06T23:54:00,28.4330,-82.6670,10.0,2.07,114.82,3.23,'11111222,11111222,11111222' 
COMPS,ioos:station:USF.COMPS:ARP:1,2019-07-07T00:54:00,28.4330,-82.6670,10.0,1.59,115.62,2.54,'11111222,11111222,11111222' 
COMPS,ioos:station:USF.COMPS:ARP:1,2019-07-07T01:54:00,28.4330,-82.6670,10.0,1.79,133.24,4.8,'11111222,11111222,11111222' 
COMPS,ioos:station:USF.COMPS:ARP:1,2019-07-07T02:54:00,28.4330,-82.6670,10.0,1.83,160.12,3.23,'11111222,11111222,11111222' 
COMPS,ioos:station:USF.COMPS:ARP:1,2019-07-07T03:54:00,28.4330,-82.6670,10.0,0.87,181.05,2.15,'11111222,11111222,11111222' 
COMPS,ioos:station:USF.COMPS:ARP:1,2019-07-07T04:54:00,28.4330,-82.6670,10.0,0.25,130.66,0.58,'11111222,11111222,11111222' 
COMPS,ioos:station:USF.COMPS:ARP:1,2019-07-07T05:54:00,28.4330,-82.6670,10.0,0.63,118.46,1.27,'11111222,11111222,11111222' 
COMPS,ioos:station:USF.COMPS:ARP:1,2019-07-07T06:54:00,28.4330,-82.6670,10.0,0.98,117.61,1.76,'11111222,11111222,11111222' 
COMPS,ioos:station:USF.COMPS:ARP:1,2019-07-07T07:54:00,28.4330,-82.6670,10.0,0.78,131.6,1.46,'11111222,11111222,11111222' 
COMPS,ioos:station:USF.COMPS:ARP:1,2019-07-07T08:54:00,28.4330,-82.6670,10.0,0.07,64.15,0.39,'11111222,11111222,11111222' 
COMPS,ioos:station:USF.COMPS:ARP:1,2019-07-07T09:54:00,28.4330,-82.6670,10.0,0.05,26.36,0.39,'11111222,11111222,11111222' 
COMPS,ioos:station:USF.COMPS:ARP:1,2019-07-07T10:54:00,28.4330,-82.6670,10.0,0.04,105.73,0.39,'11111222,11111222,11111222' 
COMPS,ioos:station:USF.COMPS:ARP:1,2019-07-07T11:54:00,28.4330,-82.6670,10.0,0.64,134.21,1.17,'11111222,11111222,11111222' 
COMPS,ioos:station:USF.COMPS:ARP:1,2019-07-07T12:54:00,28.4330,-82.6670,10.0,0.83,258.93,1.66,'11111222,11111222,11111222' 
COMPS,ioos:station:USF.COMPS:ARP:1,2019-07-07T13:54:00,28.4330,-82.6670,10.0,1.55,278.1,2.05,'11111222,11111222,11111222' 
COMPS,ioos:station:USF.COMPS:ARP:1,2019-07-07T14:54:00,28.4330,-82.6670,10.0,1.96,308.44,3.13,'11111222,11111222,11111222' 
COMPS,ioos:station:USF.COMPS:ARP:1,2019-07-07T15:54:00,28.4330,-82.6670,10.0,4.01,287.99,5.09,'11111222,11111222,11111222' 
COMPS,ioos:station:USF.COMPS:ARP:1,2019-07-07T16:54:00,28.4330,-82.6670,10.0,2.43,289.08,3.33,'11111222,11111222,11111222' 
COMPS,ioos:station:USF.COMPS:ARP:1,2019-07-07T17:54:00,28.4330,-82.6670,10.0,1.84,299.28,2.35,'11111222,11111222,11111222' 
COMPS,ioos:station:USF.COMPS:ARP:1,2019-07-07T18:54:00,28.4330,-82.6670,10.0,2.03,285.99,3.33,'11111222,11111222,11111222' 
COMPS,ioos:station:USF.COMPS:ARP:1,2019-07-07T19:54:00,28.4330,-82.6670,10.0,3.53,261.47,5.39,'11111222,11111222,11111222' 
COMPS,ioos:station:USF.COMPS:ARP:1,2019-07-07T20:54:00,28.4330,-82.6670,10.0,5.25,272.76,6.46,'11111222,11111222,11111222' 
COMPS,ioos:station:USF.COMPS:ARP:1,2019-07-07T21:54:00,28.4330,-82.6670,10.0,2.06,283.99,2.45,'11111222,11111222,11111222' 
COMPS,ioos:station:USF.COMPS:ARP:1,2019-07-07T22:54:00,28.4330,-82.6670,10.0,3.0,268.65,3.62,'11111222,11111222,11111222' 
COMPS,ioos:station:USF.COMPS:ARP:1,2019-07-07T23:54:00,28.4330,-82.6670,10.0,1.55,260.83,2.45,'11111222,11111222,11111222' 
COMPS,ioos:station:USF.COMPS:ARP:1,2019-07-08T00:54:00,28.4330,-82.6670,10.0,0.99,120.25,1.56,'11111222,11111222,11111222' 
COMPS,ioos:station:USF.COMPS:ARP:1,2019-07-08T01:54:00,28.4330,-82.6670,10.0,0.92,108.23,1.86,'11111222,11111222,11111222' 
COMPS,ioos:station:USF.COMPS:ARP:1,2019-07-08T02:54:00,28.4330,-82.6670,10.0,0.51,154.35,1.66,'11111222,11111222,11111222' 
COMPS,ioos:station:USF.COMPS:ARP:1,2019-07-08T03:54:00,28.4330,-82.6670,10.0,0.48,148.78,1.56,'11111222,11111222,11111222' 
COMPS,ioos:station:USF.COMPS:ARP:1,2019-07-08T04:54:00,28.4330,-82.6670,10.0,0.71,164.45,2.05,'11111222,11111222,11111222' 
COMPS,ioos:station:USF.COMPS:ARP:1,2019-07-08T05:54:00,28.4330,-82.6670,10.0,0.71,192.33,2.05,'11111222,11111222,11111222' 
COMPS,ioos:station:USF.COMPS:ARP:1,2019-07-08T06:54:00,28.4330,-82.6670,10.0,1.32,105.76,2.15,'11111222,11111222,11111222' 
COMPS,ioos:station:USF.COMPS:ARP:1,2019-07-08T07:54:00,28.4330,-82.6670,10.0,3.93,238.98,9.11,'11111222,11111222,11111222' 
COMPS,ioos:station:USF.COMPS:ARP:1,2019-07-08T08:54:00,28.4330,-82.6670,10.0,2.39,43.0,6.46,'11111222,11111222,11111222' 
COMPS,ioos:station:USF.COMPS:ARP:1,2019-07-08T09:54:00,28.4330,-82.6670,10.0,1.88,248.25,2.93,'11111222,11111222,11111222' 
COMPS,ioos:station:USF.COMPS:ARP:1,2019-07-08T10:54:00,28.4330,-82.6670,10.0,0.22,240.72,0.78,'11111222,11111222,11111222' 
COMPS,ioos:station:USF.COMPS:ARP:1,2019-07-08T11:54:00,28.4330,-82.6670,10.0,0.86,230.05,1.66,'11111222,11111222,11111222' 
COMPS,ioos:station:USF.COMPS:ARP:1,2019-07-08T12:54:00,28.4330,-82.6670,10.0,2.61,250.18,4.8,'11111222,11111222,11111222' 
COMPS,ioos:station:USF.COMPS:ARP:1,2019-07-08T13:54:00,28.4330,-82.6670,10.0,2.0,245.88,3.33,'11111222,11111222,11111222' 
COMPS,ioos:station:USF.COMPS:ARP:1,2019-07-08T14:54:00,28.4330,-82.6670,10.0,4.91,270.77,9.4,'11111222,11111222,11111222' 
COMPS,ioos:station:USF.COMPS:ARP:1,2019-07-08T15:54:00,28.4330,-82.6670,10.0,4.02,259.75,5.29,'11111222,11111222,11111222' 
COMPS,ioos:station:USF.COMPS:ARP:1,2019-07-08T16:54:00,28.4330,-82.6670,10.0,2.5,252.52,3.82,'11111222,11111222,11111222' 
COMPS,ioos:station:USF.COMPS:ARP:1,2019-07-08T17:54:00,28.4330,-82.6670,10.0,4.55,274.23,6.46,'11111222,11111222,11111222' 
COMPS,ioos:station:USF.COMPS:ARP:1,2019-07-08T18:54:00,28.4330,-82.6670,10.0,4.81,271.34,6.76,'11111222,11111222,11111222' 
COMPS,ioos:station:USF.COMPS:ARP:1,2019-07-08T19:54:00,28.4330,-82.6670,10.0,5.03,266.6,7.15,'11111222,11111222,11111222' 
COMPS,ioos:station:USF.COMPS:ARP:1,2019-07-08T20:54:00,28.4330,-82.6670,10.0,3.54,252.98,5.48,'11111222,11111222,11111222' 
COMPS,ioos:station:USF.COMPS:ARP:1,2019-07-08T21:54:00,28.4330,-82.6670,10.0,5.38,263.87,7.74,'11111222,11111222,11111222' 
COMPS,ioos:station:USF.COMPS:ARP:1,2019-07-08T22:54:00,28.4330,-82.6670,10.0,3.66,249.44,6.76,'11111222,11111222,11111222' 
COMPS,ioos:station:USF.COMPS:ARP:1,2019-07-08T23:54:00,28.4330,-82.6670,10.0,3.42,263.3,5.87,'11111222,11111222,11111222' 
COMPS,ioos:station:USF.COMPS:ARP:1,2019-07-09T00:54:00,28.4330,-82.6670,10.0,1.64,251.55,2.93,'11111222,11111222,11111222' 
COMPS,ioos:station:USF.COMPS:ARP:1,2019-07-09T01:54:00,28.4330,-82.6670,10.0,3.03,275.41,4.6,'11111222,11111222,11111222' 